Location: Grand Kerinou
(48.4000°N, 4.4833°W)
Time: 05:52:08
(UTC+00:00)

Daily predictions for brighter satellites

Satellite Brightness Start Highest point End
(mag) Time Altitude Azimuth Time Altitude Azimuth Time Altitude Azimuth
Cosmos 2344 4.4 02:47:18 42° E 02:47:18 42° E 02:53:44 10° NE
CENTAUR R/B 4.2 02:49:22 25° E 02:49:22 25° E 02:53:55 10° ENE
CZ-3B R/B 3.9 02:59:50 60° NE 02:59:50 60° NE 03:17:26 10° ESE
USA 238 DEB 4.1 03:24:05 58° E 03:24:05 58° E 03:30:01 10° NE
USA 238 4.1 03:24:10 58° E 03:24:10 58° E 03:30:07 10° NE
BREEZE-M DEB (TANK) 4.5 03:26:46 75° E 03:26:46 75° E 03:41:59 10° ENE
NOSS 3-2 (A) 4.0 03:28:10 53° ENE 03:28:10 53° ENE 03:33:17 10° NE
USA 234 3.5 03:37:53 10° NE 03:43:58 59° N 03:43:58 59° N
IDEFIX/ARIANE 42P 4.0 03:45:15 10° N 03:47:43 28° N 03:47:43 28° N
ADEOS Rocket 3.2 03:46:26 10° SSE 03:51:48 58° ENE 03:57:19 10° N
Cosmos 1833 Rocket 4.4 03:48:51 15° SSE 03:52:32 29° ESE 03:57:20 10° NE
BREEZE-M DEB (TANK) 4.1 04:04:28 61° S 04:04:28 61° S 04:15:47 10° ESE
Cosmos 44 Rocket 4.0 04:11:06 48° SSE 04:11:06 48° SSE 04:14:48 10° SSE
Lacrosse 4 Rocket 2.5 04:13:16 42° ENE 04:13:16 42° ENE 04:16:13 10° NE
Meteor 1-16 Rocket 4.4 04:07:02 10° N 04:13:38 54° SSE 04:17:42 10° SSE
Cosmos 1656 3.6 04:13:21 77° S 04:13:21 77° S 04:18:40 10° SSE
Cosmos 2082 Rocket 4.3 04:08:56 10° SSE 04:13:21 24° ESE 04:17:47 10° NE
CZ-4B R/B 3.3 04:16:11 10° SE 04:19:14 30° ENE 04:20:13 25° NE
Cosmos 2180 Rocket 4.3 04:18:54 10° N 04:25:13 84° W 04:31:25 10° S
Cosmos 1025 Rocket 4.4 04:28:22 29° N 04:28:22 29° N 04:30:37 10° N
Nadezhda 4 Rocket 4.5 04:21:06 10° S 04:27:04 58° E 04:33:06 10° NNE
NOSS 3-2 (C) 3.3 04:26:20 62° WSW 04:27:23 81° NW 04:34:04 10° NE
Lacrosse 5 rocket 2.3 04:30:54 36° SE 04:30:54 36° SE 04:34:20 10° ENE
Cosmos 2228 4.1 04:27:25 10° N 04:31:37 44° ENE 04:35:49 10° SSE
COSMOS 2406 3.3 04:31:47 31° SSW 04:34:36 75° ESE 04:40:17 10° NNE
Cosmos 1697 Rocket 2.7 04:31:10 22° NNW 04:35:01 83° ENE 04:40:41 10° SSE
ALOS 3.5 04:30:57 10° NNE 04:35:24 42° E 04:39:49 10° S
Cosmos 1606 Rocket 4.5 04:33:36 10° N 04:37:58 49° ENE 04:42:18 10° SSE
CENTAUR R/B 2.5 04:36:33 49° WSW 04:38:23 74° NW 04:45:38 10° NE
ARIANE 5 R/B 4.2 04:39:22 10° N 04:41:04 18° NNW 04:41:04 18° NNW
FENGYUN 3A 4.3 04:42:19 10° NNE 04:47:42 58° E 04:53:03 10° S
COSMO-SKYMED 1 4.0 04:44:36 10° SE 04:48:36 37° ENE 04:52:37 10° N
ISS -3.0 04:54:40 42° SSE 04:54:59 44° SSE 04:58:12 10° ENE
CZ-2C R/B 2.4 04:50:57 10° N 04:55:53 59° WNW 04:57:46 35° SW
USA 290 4.1 04:54:04 10° S 04:56:58 32° ESE 04:59:54 10° NE
Cosmos 1980 Rocket 2.4 04:51:42 10° NNW 04:57:19 70° ENE 05:02:53 10° SE
Cosmos 2279 Rocket 4.3 04:52:59 10° NNW 04:58:39 39° W 05:04:16 10° SSW
Cosmos 2344 3.8 04:57:20 32° W 05:00:40 52° NW 05:08:56 10° NE
Cosmos 220 Rocket 3.9 04:57:51 19° NNW 05:01:03 83° WSW 05:05:28 10° SSE
ERS-2 2.2 04:57:34 10° S 05:00:40 53° SW 05:00:40 53° SW
Cosmos 1400 Rocket 3.5 04:57:35 10° N 05:01:29 53° ENE 05:05:18 10° SSE
SAR-Lupe-4 3.8 04:59:36 10° SSE 05:03:09 71° ENE 05:06:44 10° N
Cosmos 1536 Rocket 4.2 05:07:26 35° WNW 05:07:26 35° WNW 05:11:10 10° N
deb Chang Zheng 4 3.7 05:03:04 10° NNE 05:07:19 72° ESE 05:11:34 10° S
Cosmos 2058 Rocket 3.9 05:05:46 10° N 05:10:12 53° ENE 05:14:35 10° SSE
Cosmos 2360 4.1 05:06:03 10° NNW 05:11:42 67° WSW 05:17:19 10° SSE
PAYLOAD A 4.4 05:07:13 10° N 05:11:56 40° WNW 05:14:09 27° WSW
CREW DRAGON DEMO-1 DEB 3.1 05:11:45 50° NNW 05:12:06 55° NNE 05:15:05 10° E
USA 238 DEB 4.2 05:11:33 28° W 05:14:33 41° NNW 05:21:09 10° NE
USA 238 4.2 05:11:38 28° W 05:14:38 42° NNW 05:21:15 10° NE
Aureole 3 4.0 05:13:27 10° N 05:17:26 67° E 05:22:30 10° SSE
NOSS 3-2 (A) 4.3 05:15:35 26° WNW 05:18:11 36° NNW 05:24:29 10° NE
ADEOS 3.5 05:14:12 10° NNE 05:19:26 77° WNW 05:24:39 10° SSW
SAR-Lupe-1 3.9 05:17:29 10° S 05:21:02 77° WSW 05:24:38 10° NNW
Cosmos 1892 Rocket 3.8 05:17:29 10° S 05:21:49 72° E 05:26:12 10° NNE
SL-19 R/B 3.6 05:21:11 10° NNE 05:24:01 73° ESE 05:26:51 10° S
Cosmos 2026 Rocket 4.3 05:17:59 10° S 05:24:18 74° E 05:30:42 10° NNE
SJ-12 4.4 05:20:21 10° NNE 05:24:28 64° ESE 05:28:31 10° S
SL-14 R/B 3.2 05:20:37 10° SSW 05:24:34 66° W 05:28:36 10° N
Geosat 4.4 05:20:09 10° S 05:24:51 39° WSW 05:28:38 15° NW
Cosmos 1300 2.6 05:21:19 10° NNW 05:25:07 64° W 05:28:53 10° S
ATLAS 3B R/B 2.7 05:18:58 10° SW 05:25:32 83° SE 05:32:15 10° NE
Cosmos 2278 3.6 05:20:06 10° NNW 05:25:46 73° WSW 05:31:23 10° SSE
USA 234 4.0 05:20:39 10° ENE 05:26:42 42° N 05:31:18 17° WNW
PSLV R/B 4.4 05:23:32 10° N 05:27:10 28° WNW 05:27:51 26° W
Cosmos 2322 Rocket 3.7 05:23:12 10° NNW 05:28:25 35° NE 05:33:34 10° ESE
Cosmos 2195 Rocket 4.5 05:22:50 10° S 05:29:04 89° W 05:35:16 10° N
IDEFIX/ARIANE 42P 4.4 05:26:42 10° NNW 05:28:31 13° NW 05:28:31 13° NW
Cosmos 1461 3.1 05:27:40 12° SW 05:31:53 80° NW 05:36:38 10° NE
Cosmos 1315 Rocket 4.2 05:27:59 10° N 05:31:55 42° ENE 05:35:51 10° SE
Cosmos 1674 4.3 05:34:31 18° NW 05:34:31 18° NW 05:36:22 10° NNW
Elektron 1 4.0 05:32:46 11° SW 05:35:46 68° SE 05:38:41 10° NE
Cosmos 1833 Rocket 2.8 05:30:41 10° SW 05:36:11 52° WNW 05:41:44 10° NNE
SKYMED 2 3.5 05:32:14 10° S 05:36:34 75° WSW 05:40:56 10° NNW
ADEOS Rocket 3.8 05:33:39 10° SW 05:37:51 22° W 05:42:08 10° NW
Meteor 2-10 Rocket 3.9 05:33:03 10° N 05:38:03 63° ENE 05:43:04 10° SSE
Cosmos 1626 2.6 05:34:38 10° SW 05:38:03 36° WNW 05:41:30 10° N
Cosmos 1484 Rocket 3.2 05:37:58 10° N 05:41:37 40° WNW 05:45:11 10° SW
METEOR-M 4.2 05:41:49 10° N 05:47:05 59° WNW 05:52:18 10° SSW
H-2A R/B 4.0 05:44:04 10° NNE 05:47:45 45° E 05:51:27 10° S
Meteor 1-24 Rocket 3.8 05:43:03 10° SSW 05:48:37 60° WNW 05:54:26 10° N
Cosmos 2369 4.3 05:44:00 10° NW 05:49:00 33° WSW 05:53:59 10° SSW
PSLV R/B 4.0 05:46:30 10° S 05:50:39 60° W 05:54:51 10° NNW
Lacrosse 4 Rocket 2.7 05:49:36 17° WNW 05:51:13 21° NW 05:54:24 10° N
CZ-4B R/B 2.8 05:48:53 10° SW 05:51:31 20° W 05:53:21 14° NW
ARGOS Delta rocket 4.2 05:49:46 10° N 05:55:03 59° WNW 06:00:25 10° SSW
Cosmos 2082 Rocket 2.2 05:51:28 10° SW 05:57:00 60° WNW 06:02:36 10° NNE
Abrixas rocket 2.9 05:56:36 17° W 05:58:17 31° SSW 06:00:52 10° SE
Cosmos 1726 Rocket 4.3 05:56:13 10° NNW 06:00:10 32° W 06:04:07 10° SSW
Meteor PRIRODA 3.5 05:56:56 10° N 06:00:33 66° WNW 06:04:11 10° SSW
CZ-4B R/B 2.9 05:56:39 10° N 06:00:36 61° WNW 06:04:45 10° SSW
ASTRO F (AKARI) 4.4 06:00:15 10° N 06:03:47 67° WNW 06:07:09 10° SSW
SL-16 R/B 2.5 05:58:25 10° NNW 06:04:07 70° ENE 06:09:46 10° SE
Meteor 1-31 Rocket 3.6 06:02:27 10° N 06:05:57 31° WNW 06:09:26 10° SW
Cosmos 1092 Rocket 4.3 06:01:20 10° SW 06:07:11 44° WNW 06:13:09 10° N
Meteor 2-1 Rocket 4.3 06:02:33 10° NNW 06:08:14 86° W 06:14:01 10° S
Cosmos 2228 4.3 06:05:40 10° NW 06:08:51 20° W 06:12:02 10° SW
Lacrosse 5 rocket 1.6 06:06:34 11° W 06:09:56 42° NNW 06:13:38 10° NE
MOS 1 Rocket 3.3 06:06:45 10° SSE 06:11:02 74° ENE 06:15:19 10° N
Cosmos 2333 Rocket 4.3 06:07:28 10° N 06:11:53 23° NE 06:16:17 10° E
ALOS 3.2 06:08:45 10° N 06:12:38 27° WNW 06:16:30 10° WSW
Cosmos 1455 2.2 06:10:02 10° N 06:13:56 87° W 06:17:48 10° S
Cosmos 1689 Rocket 3.5 06:13:02 10° SW 06:15:16 20° W 06:17:31 10° NW
Cosmos 1697 Rocket 4.1 06:14:42 10° WNW 06:18:14 17° W 06:21:47 10° SW
Cosmos 1703 4.2 06:14:34 10° S 06:18:20 52° E 06:22:09 10° NNE
COSMOS 2406 4.3 06:14:58 10° W 06:19:32 24° NW 06:24:07 10° N
ATLAS CENTAUR R/B 3.1 06:16:55 10° S 06:20:29 34° ESE 06:23:56 10° NE
PSLV R/B 3.9 06:16:25 10° NNE 06:20:33 81° WNW 06:24:39 10° SSW
Meteor 2-19 Rocket 4.4 06:14:53 10° SSW 06:20:58 78° W 06:27:05 10° N
COSMO-SKYMED 1 3.6 06:21:16 10° SSW 06:24:51 25° W 06:28:29 10° NW
Cosmos 192 4.5 06:20:32 10° NNW 06:25:33 87° ENE 06:30:30 10° SSE
Cosmos 2251 Rocket 4.1 06:21:23 10° SW 06:26:18 36° WNW 06:31:15 10° N
S3M 4.0 06:20:43 10° NNW 06:27:00 76° W 06:33:20 10° S
Cosmos 1655 Rocket 4.1 06:20:46 10° S 06:27:03 89° E 06:33:27 10° N
